P/1998 VS24 ( LINEAR ) 2008

Japanese version
Home page
Updated on January 25, 2009

---------------------------------------------------------------------

* Profile

* Orbital Elements

The following orbital elements are taken from MPC 54169:

Epoch 2008 May 14.0 TT = JDT 2454600.5
T 2008 May 24.6726 TT                                   MPC
q   3.422563             (2000.0)            P               Q
n   0.1026959      Peri.  244.3746      +0.7234277      -0.6896978
a   4.516139       Node   159.1849      +0.6606924      +0.6785085
e   0.242148       Incl.    5.0263      +0.2003445      +0.2528699
P   9.60
From 37 observations 1998 Oct. 24-1999 Jan. 13, mean residual 0".7.

* Finding Charts

* Magnitudes Graph

        m1 = 11.3 + 5 log d + 10.0 log r

---------------------------------------------------------------------

The orbital elements are published at the MPC Ephemerides and Orbital Elements.
The charts are made with StellaNavigator Ver.2.0 for Windows (AstroArts / ASCII).
The magnitudes graphs are made with Comet for Windows.

---------------------------------------------------------------------

Copyright(C) Seiichi Yoshida (comet@aerith.net). All rights reserved.